GW4151 Weather Reports


time (UTC)temp
F
wind
direction
speed
knots
gust
knots
rain 1hr
in
rain 24hr
in
rain mn
in
humidity
%
barometer
mb
20260901042418 77 203 1.7 2.6 0.00 0.00 0.00 89 993.6
20260901040913 76 230 1.7 2.6 0.00 0.00 0.00 88 993.7
20260901035412 75 188 0.0 0.9 0.00 0.24 0.24 91 993.8
20260901033912 74 199 0.0 0.0 0.00 0.24 0.24 92 994.0
20260901032409 75 196 0.0 0.9 0.00 0.24 0.24 91 993.8
20260901030906 75 47 0.0 0.0 0.00 0.24 0.24 90 993.9
20260901025401 76 198 0.0 0.9 0.00 0.24 0.24 88 993.6
20260901023900 76 210 1.7 1.7 0.00 0.24 0.24 87 993.2
20260901022358 77 198 1.7 3.5 0.00 0.24 0.24 86 993.1
20260901020855 77 125 2.6 5.2 0.00 0.24 0.24 86 993.3
20260901015352 76 216 2.6 3.5 0.00 0.24 0.24 87 993.6
20260901013848 77 193 0.9 2.6 0.00 0.24 0.24 85 994.0
20260901012346 78 174 1.7 3.5 0.00 0.24 0.24 83 993.3
20260901010842 77 209 0.9 1.7 0.00 0.24 0.24 84 993.6
20260901005343 78 194 0.9 1.7 0.00 0.24 0.24 83 993.4
20260901003838 78 175 1.7 2.6 0.00 0.24 0.24 81 993.4
20260901002337 79 190 0.0 3.5 0.00 0.24 0.24 81 993.3
20260901000834 79 221 1.7 3.5 0.00 0.24 0.24 80 993.2
20260831235330 80 242 2.6 3.5 0.00 0.24 0.24 80 993.3
20260831233826 81 226 1.7 5.2 0.00 0.24 0.24 78 993.3
20260831232324 81 214 2.6 5.2 0.00 0.24 0.24 77 992.9
20260831230823 82 213 3.5 5.2 0.00 0.24 0.24 78 993.1
20260831225318 81 239 2.6 5.2 0.00 0.24 0.24 78 993.4
20260831223815 81 205 5.2 7.0 0.00 0.24 0.24 77 993.2
20260831222315 82 193 0.9 2.6 0.00 0.24 0.24 77 992.5
20260831220811 83 190 2.6 6.1 0.00 0.24 0.24 74 992.6
20260831215309 84 157 3.5 6.1 0.00 0.24 0.24 71 992.9
20260831213804 85 205 3.5 7.0 0.00 0.24 0.24 68 992.9
20260831212306 87 180 3.5 7.0 0.00 0.24 0.24 63 992.8
20260831210803 85 182 3.5 8.7 0.00 0.24 0.24 67 992.8
20260831205305 83 240 1.7 5.2 0.00 0.24 0.24 71 992.8
20260831203800 80 139 5.2 9.6 0.35 0.24 0.24 77 992.6
20260831202300 80 254 3.5 7.0 0.14 0.18 0.18 80 993.1
20260831200800 80 200 0.9 5.2 0.00 0.16 0.16 83 993.2
20260831195258 80 205 1.7 2.6 0.00 0.16 0.16 87 993.2
20260831193754 78 181 1.7 3.5 0.00 0.16 0.16 91 992.7
20260831192251 77 182 0.0 0.9 0.07 0.13 0.13 93 993.8
20260831190750 77 185 0.9 0.9 0.17 0.12 0.12 93 993.5
20260831185246 78 172 1.7 3.5 0.07 0.02 0.02 86 993.9
20260831183741 79 172 1.7 1.7 0.00 0.01 0.01 84 993.9
20260831182241 80 164 0.0 0.0 0.00 0.01 0.01 79 994.2
20260831180737 80 208 0.0 1.7 0.00 0.01 0.01 76 994.0
20260831175233 81 223 1.7 3.5 0.00 0.01 0.01 74 993.9
20260831173729 81 154 1.7 3.5 0.00 0.01 0.01 75 994.3
20260831172225 83 170 3.5 8.7 0.00 0.01 0.01 73 994.2
20260831170725 84 222 4.3 7.0 0.00 0.01 0.01 70 994.2
20260831165225 82 227 2.6 3.5 0.00 0.01 0.01 73 994.5
20260831163723 80 210 3.5 6.1 0.00 0.01 0.01 76 994.9
20260831162223 79 257 2.6 6.1 0.00 0.01 0.01 80 995.0
20260831160720 78 174 1.7 3.5 0.00 0.01 0.01 82 995.1
20260831155216 76 289 2.6 7.8 0.00 0.01 0.01 86 995.1
20260831153712 74 208 3.5 6.1 0.00 0.01 0.01 90 995.4
20260831152212 73 202 1.7 3.5 0.00 0.01 0.01 91 995.5
20260831150707 72 180 0.9 1.7 0.00 0.01 0.01 93 995.3
20260831145203 73 157 3.5 5.2 0.05 0.01 0.01 91 995.5
20260831143659 73 151 1.7 2.6 0.00 0.00 0.00 89 996.1
20260831142158 74 129 1.7 2.6 0.00 0.00 0.00 85 995.7
20260831140658 75 176 1.7 3.5 0.00 0.00 0.00 84 995.0
20260831135158 74 155 3.5 7.8 0.00 0.00 0.00 84 995.2
20260831133654 73 164 0.9 3.5 0.00 0.00 0.00 87 995.4
20260831132150 74 214 4.3 7.0 0.00 0.00 0.00 87 995.2
20260831130648 72 180 0.9 2.6 0.00 0.00 0.00 90 995.4
20260831125143 73 221 1.7 1.7 0.00 0.00 0.00 89 995.4
20260831123641 73 165 1.7 3.5 0.00 0.00 0.00 86 995.7
20260831122136 73 180 1.7 6.1 0.00 0.00 0.00 87 995.4
20260831120632 73 171 1.7 3.5 0.00 0.00 0.00 87 995.5
20260831115130 72 200 0.0 1.7 0.00 0.00 0.00 89 995.3
20260831113630 71 145 1.7 3.5 0.00 0.00 0.00 91 994.9
20260831112125 70 130 5.2 7.0 0.00 0.00 0.00 92 994.7
20260831110624 68 138 0.0 0.0 0.00 0.00 0.00 96 994.5
20260831105119 68 143 0.9 1.7 0.00 0.00 0.00 97 994.3
20260831103618 68 160 0.0 0.9 0.00 0.00 0.00 97 994.7
20260831102115 68 186 0.0 0.0 0.00 0.00 0.00 97 994.7
20260831100613 68 169 0.0 0.9 0.00 0.00 0.00 97 994.8
20260831095113 69 174 0.0 0.0 0.00 0.00 0.00 97 994.9
20260831093612 68 177 0.0 0.0 0.00 0.00 0.00 97 995.1
20260831092111 68 204 0.0 0.0 0.00 0.00 0.00 97 995.4
20260831090607 68 154 0.0 0.9 0.00 0.00 0.00 96 995.3
20260831085105 68 192 0.0 0.0 0.00 0.00 0.00 96 995.0
20260831083605 69 180 0.0 0.9 0.00 0.00 0.00 96 995.0
20260831082105 69 174 0.0 0.0 0.00 0.00 0.00 95 994.9
20260831080603 69 138 0.0 0.9 0.00 0.00 0.00 94 995.0
20260831075100 70 173 0.0 0.9 0.00 0.00 0.00 93 995.0
20260831073555 71 156 0.9 1.7 0.00 0.00 0.00 92 995.1
20260831072053 71 188 1.7 2.6 0.00 0.00 0.00 91 995.2
20260831070551 71 234 0.9 2.6 0.00 0.00 0.00 91 995.4
20260831065050 71 219 1.7 2.6 0.00 0.00 0.00 91 995.5
20260831063548 70 208 0.0 0.9 0.00 0.00 0.00 94 995.4
20260831062048 69 171 0.0 0.0 0.00 0.00 0.00 95 995.0
20260831060543 69 167 0.0 0.9 0.00 0.00 0.00 95 994.9
20260831055041 70 178 0.0 0.0 0.00 0.00 0.00 94 994.9
20260831053538 69 181 0.0 0.0 0.00 0.00 0.00 94 995.3
20260831052037 69 176 0.0 0.0 0.00 0.00 0.00 94 995.1
20260831050535 70 148 0.9 0.9 0.00 0.00 0.00 93 995.3
20260831045034 70 191 0.0 0.0 0.00 0.00 0.00 92 995.3
20260831043531 71 170 0.0 0.0 0.00 0.00 0.00 92 995.5